Portada
METAR-TAF:

METAR-TAF

Aeropuertos :

Audubon County Airport

Audubon, Iowa, Estados Unidos

latitud: 41-42-04N, longitud: 094-55-13W, altitud: 392 m

Observación

El informe se hizo hace 7 minutos, a las 07:15 UTC
Viento 12 kt del sur-sureste con ráfagas de 16 kt
Temperatura 25°C
Humedad 83%
Presión 1013 hPa
Visibilidad: 16.1 km
Cielo despejado

METAR: KADU 070715Z AUTO 16012G16KT 10SM CLR 25/22 A2990 RMK AO2

Hora: 02:22 (07:22 UTC)


TAF: falta

Observaciones y pronósticos meteorológicos de más de 4000 aeropuertos (mensajes METAR y TAF).

Los puntos amarillos y rojos representan las estaciones disponibles.

Ponga el ratón en el punto deseado para ver el nombre de la estación.

Haga clic para ver las observaciones y los pronósticos meteorológicos.

Para cambiar el mapa : haga clic en los botones verdes con una cruz de color negro para hacer un zoom, en el botón verde con un guión para alejar o en las flechas verdes para mapas adyacentes.


METAR-TAF: